TimeHST,TemperatureF,Dew PointF,Humidity,Sea Level PressureIn,VisibilityMPH,Wind Direction,Wind SpeedMPH,Gust SpeedMPH,PrecipitationIn,Events,Conditions,WindDirDegrees,DateUTC
12:56 AM,73.9,61.0,64,30.03,10.0,ENE,3.5,-,N/A,,Clear,70,2013-08-05 10:56:00
1:56 AM,73.0,61.0,66,30.01,10.0,East,3.5,-,N/A,,Clear,100,2013-08-05 11:56:00
2:56 AM,73.0,61.0,66,30.00,10.0,East,5.8,-,N/A,,Scattered Clouds,90,2013-08-05 12:56:00
3:56 AM,72.0,61.0,68,29.99,10.0,ENE,4.6,-,N/A,,Clear,70,2013-08-05 13:56:00
4:56 AM,72.0,61.0,68,29.99,10.0,ESE,3.5,-,N/A,,Clear,120,2013-08-05 14:56:00
5:56 AM,71.1,62.1,73,30.01,10.0,ENE,3.5,-,N/A,,Partly Cloudy,70,2013-08-05 15:56:00
6:56 AM,75.0,62.1,64,30.02,10.0,ENE,3.5,-,N/A,,Clear,70,2013-08-05 16:56:00
7:56 AM,79.0,66.0,64,30.03,10.0,Calm,Calm,-,N/A,,Clear,0,2013-08-05 17:56:00
8:56 AM,80.1,68.0,67,30.04,10.0,West,4.6,-,N/A,,Clear,270,2013-08-05 18:56:00
9:56 AM,82.0,68.0,62,30.04,10.0,West,6.9,-,N/A,,Clear,270,2013-08-05 19:56:00
10:56 AM,82.9,66.9,58,30.03,10.0,West,9.2,-,N/A,,Clear,260,2013-08-05 20:56:00
11:56 AM,84.0,69.1,61,30.01,10.0,WNW,9.2,-,N/A,,Clear,300,2013-08-05 21:56:00
12:56 PM,84.0,66.9,56,30.00,10.0,WSW,8.1,-,N/A,,Partly Cloudy,250,2013-08-05 22:56:00
1:56 PM,84.9,69.1,59,29.99,10.0,West,9.2,-,N/A,,Clear,260,2013-08-05 23:56:00
2:56 PM,84.9,69.1,59,29.97,10.0,West,12.7,-,N/A,,Clear,260,2013-08-06 00:56:00
3:56 PM,84.9,71.1,63,29.96,10.0,NNW,11.5,-,N/A,,Clear,330,2013-08-06 01:56:00
4:56 PM,84.9,70.0,61,29.96,10.0,NNW,13.8,-,N/A,,Overcast,330,2013-08-06 02:56:00
5:56 PM,82.9,68.0,60,29.96,10.0,West,3.5,-,N/A,,Mostly Cloudy,270,2013-08-06 03:56:00
6:56 PM,81.0,68.0,65,29.97,10.0,South,6.9,-,N/A,,Clear,180,2013-08-06 04:56:00
7:56 PM,79.0,68.0,69,29.99,10.0,NE,3.5,-,N/A,,Clear,40,2013-08-06 05:56:00
8:56 PM,78.1,66.9,68,30.01,10.0,Calm,Calm,-,N/A,,Clear,0,2013-08-06 06:56:00
9:56 PM,77.0,66.0,69,30.03,10.0,Calm,Calm,-,N/A,,Partly Cloudy,0,2013-08-06 07:56:00
10:56 PM,77.0,63.0,62,30.03,10.0,ESE,3.5,-,N/A,,Clear,110,2013-08-06 08:56:00
11:56 PM,75.9,64.9,69,30.02,10.0,Calm,Calm,-,N/A,,Overcast,0,2013-08-06 09:56:00